User: anonymous
Location: Unspecified
(0.0000°N, 0.0000°E)
Time: 05:56:33
(UTC+00:00)
Language:

Tiros 1 - Orbit

View from above orbital plane
View from above orbital plane
View from above satellite
View from above satellite

Ground track
Ground track

The orbit data is extracted from the following two-line orbital elements,

1 00029U 60002B   14272.75013849  .00000891  00000-0  16704-3 0  3423
2 00029 048.3797 077.2759 0024777 303.0979 056.7554 14.73322517910654
Epoch (UTC): 29 September 2014 18:00:11
Eccentricity: 0.0024777
inclination: 48.3797°
perigee height: 633 km
apogee height: 668 km
right ascension of ascending node: 77.2759°
argument of perigee: 303.0979°
revolutions per day: 14.73322517
mean anomaly at epoch: 56.7554°
orbit number at epoch: 91065

The dashed part of the orbit path shows where the satellite is in the earth's shadow,  

DLR